{"data":{"norad_id":67051,"epoch":"2026-05-24T21:27:37.725696Z","epoch_age_seconds":91145,"freshness":"FRESH","line1":"1 67051U 25294X   26144.89418664  .00020273  00000+0  74391-3 0  9994","line2":"2 67051  42.9986 327.7145 0000350 247.1177 112.9637 15.27592033 26458","mean_motion":15.27592033,"eccentricity":3.5e-5,"inclination_deg":42.9986,"raan_deg":327.7145,"arg_perigee_deg":247.1177,"mean_anomaly_deg":112.9637,"bstar":0.00074391,"rev_number":2645,"period_min":94.266006164749,"perigee_km":482.77292489304,"apogee_km":483.2532053976,"semimajor_km":6861.1500651453,"source":"CELESTRAK","updated_at":"2026-05-25T13:38:21.440957Z"}}